Date String (YYYY-MM-DD hh:mm:ss) UTC,Instrument flags,Ambient pressure (hPa),Sample flow (lpm),Bypass flow (lpm),Sample temperature (°C),Ambient temperature (°C),ASC tube jacket temperature (°C),LED temperature (°C),Box temperature (°C),Sample RH (%),Span deviation,Mass concentration (μg/m³),Mass concentration (μg/m³),Mass concentration (μg/m³)
DateTimeUTC,F1_M11,P_M11,Q1_M11,Q2_M11,T1_M11,T2_M11,T3_M11,T4_M11,T5_M11,U1_M11,ZSPAN_M11,X2_M11,X0_M11,X1_M11
2022-08-08 12:00:00,,0832.3,5.00,0.00,30.5,29.2,00.0,39.2,32.2,31.4,0000.0,0003.73,0005.79,0003.41
2022-08-08 12:01:00,,0832.3,4.98,0.00,30.5,29.2,00.0,39.2,32.2,31.3,0000.0,0003.77,0005.93,0003.43
2022-08-08 12:02:00,,0832.3,5.00,0.00,30.5,29.2,00.0,39.2,32.2,31.1,0000.0,0003.84,0006.04,0003.47
2022-08-08 12:03:00,,0832.3,5.01,0.00,30.5,29.2,00.0,39.3,32.3,31.1,0000.0,0003.85,0006.05,0003.50
2022-08-08 12:04:00,,0832.3,5.00,0.00,30.5,29.2,00.0,39.3,32.2,30.8,0000.0,0003.87,0006.17,0003.51
2022-08-08 12:05:00,,0832.3,4.99,0.00,30.5,29.3,00.0,39.3,32.3,30.7,0000.0,0003.90,0006.18,0003.54
2022-08-08 12:06:00,,0832.3,5.00,0.00,30.5,29.3,00.0,39.3,32.3,30.6,0000.0,0003.89,0006.15,0003.55
2022-08-08 12:07:00,,0832.4,5.01,0.00,30.5,29.3,00.0,39.3,32.3,30.6,0000.0,0003.87,0006.04,0003.54
2022-08-08 12:08:00,,0832.4,5.00,0.00,30.5,28.8,00.0,39.2,32.2,30.7,0000.0,0003.87,0006.08,0003.54
2022-08-08 12:09:00,,0832.4,5.02,0.00,30.5,28.1,00.0,39.2,32.0,30.9,0000.0,0003.87,0006.14,0003.53
2022-08-08 12:10:00,,0832.5,4.99,0.00,30.4,27.8,00.0,39.1,31.9,31.0,0000.0,0003.88,0006.23,0003.53
2022-08-08 12:11:00,,0832.4,5.01,0.00,30.2,27.7,00.0,39.1,31.7,32.0,0000.0,0003.89,0006.09,0003.52
2022-08-08 12:12:00,,0832.5,4.99,0.00,30.2,27.8,00.0,39.1,31.7,31.9,0000.0,0003.88,0005.94,0003.51
2022-08-08 12:13:00,,0832.5,5.01,0.00,30.1,27.9,00.0,39.0,31.7,32.1,0000.0,0003.84,0005.83,0003.49
2022-08-08 12:14:00,,0832.5,4.99,0.00,30.1,28.0,00.0,39.0,31.7,31.5,0000.0,0003.80,0005.65,0003.47
2022-08-08 12:15:00,,0832.5,4.98,0.00,30.1,28.1,00.0,39.0,31.7,31.7,0000.0,0003.82,0005.71,0003.47
2022-08-08 12:16:00,,0832.5,5.00,0.00,30.1,28.2,00.0,39.0,31.7,31.6,0000.0,0003.81,0005.69,0003.47
2022-08-08 12:17:00,,0832.5,5.00,0.00,30.1,28.3,00.0,39.0,31.7,31.5,0000.0,0003.83,0005.80,0003.46
2022-08-08 12:18:00,,0832.5,4.99,0.00,30.1,28.4,00.0,38.9,31.8,31.6,0000.0,0003.87,0005.97,0003.47
2022-08-08 12:19:00,,0832.5,5.00,0.00,30.1,28.5,00.0,38.9,31.9,31.8,0000.0,0003.87,0005.94,0003.48
2022-08-08 12:20:00,,0832.5,5.00,0.00,30.1,28.6,00.0,38.9,31.9,31.8,0000.0,0003.90,0005.95,0003.49
2022-08-08 12:21:00,,0832.6,5.00,0.00,30.1,28.7,00.0,38.9,31.9,32.3,0000.0,0003.88,0005.84,0003.49
2022-08-08 12:22:00,,0832.6,5.00,0.00,30.1,28.7,00.0,38.9,31.9,32.1,0000.0,0003.86,0005.74,0003.50
2022-08-08 12:23:00,,0832.6,5.00,0.00,30.1,28.8,00.0,38.9,31.9,32.3,0000.0,0003.89,0005.77,0003.52
2022-08-08 12:24:00,,0832.6,5.00,0.00,30.1,28.8,00.0,38.9,31.9,32.4,0000.0,0003.92,0005.82,0003.55
2022-08-08 12:25:00,,0832.6,5.00,0.00,30.1,28.9,00.0,38.9,32.0,32.4,0000.0,0003.98,0006.08,0003.58
2022-08-08 12:26:00,,0832.6,5.00,0.00,30.1,28.9,00.0,38.9,32.0,32.4,0000.0,0004.00,0006.34,0003.62
2022-08-08 12:27:00,,0832.6,5.00,0.00,30.1,28.9,00.0,38.9,32.0,32.4,0000.0,0004.04,0006.48,0003.66
2022-08-08 12:28:00,,0832.6,5.00,0.00,30.2,29.0,00.0,38.9,32.0,32.4,0000.0,0004.09,0006.56,0003.69
2022-08-08 12:29:00,,0832.6,5.00,0.00,30.2,29.0,00.0,39.0,32.0,32.4,0000.0,0004.10,0006.57,0003.72
2022-08-08 12:30:00,,0832.6,5.00,0.00,30.2,29.0,00.0,39.0,32.0,32.4,0000.0,0004.11,0006.67,0003.74
2022-08-08 12:31:00,,0832.6,5.01,0.00,30.2,29.1,00.0,39.0,32.0,32.3,0000.0,0004.10,0006.69,0003.75
2022-08-08 12:32:00,,0832.7,5.01,0.00,30.2,29.1,00.0,39.0,32.0,32.3,0000.0,0004.12,0006.74,0003.77
2022-08-08 12:33:00,,0832.7,5.00,0.00,30.2,29.1,00.0,39.0,32.1,32.6,0000.0,0004.14,0006.77,0003.80
2022-08-08 12:34:00,,0832.7,5.00,0.00,30.2,29.1,00.0,39.0,32.1,33.1,0000.0,0004.15,0006.78,0003.81
2022-08-08 12:35:00,,0832.7,4.99,0.00,30.2,29.2,00.0,39.0,32.1,33.2,0000.0,0004.19,0007.06,0003.82
2022-08-08 12:36:00,,0832.7,5.00,0.00,30.3,29.2,00.0,39.0,32.1,32.9,0000.0,0004.19,0007.03,0003.82
2022-08-08 12:37:00,,0832.7,5.00,0.00,30.3,29.2,00.0,39.0,32.1,32.7,0000.0,0004.17,0006.74,0003.82
2022-08-08 12:38:00,,0832.7,5.01,0.00,30.3,29.2,00.0,39.1,32.2,33.0,0000.0,0004.18,0006.74,0003.83
2022-08-08 12:39:00,,0832.7,4.98,0.00,30.3,29.3,00.0,39.1,32.2,33.0,0000.0,0004.15,0007.21,0003.83
2022-08-08 12:40:00,,0832.8,5.00,0.00,30.3,29.3,00.0,39.1,32.2,32.8,0000.0,0004.14,0007.44,0003.83
2022-08-08 12:41:00,,0832.8,5.00,0.00,30.3,29.3,00.0,39.1,32.2,32.9,0000.0,0004.15,0007.46,0003.82
2022-08-08 12:42:00,,0832.8,5.00,0.00,30.4,29.3,00.0,39.1,32.2,33.0,0000.0,0004.20,0007.62,0003.83
2022-08-08 12:43:00,,0832.8,5.01,0.00,30.4,29.3,00.0,39.1,32.2,33.0,0000.0,0004.29,0007.82,0003.86
2022-08-08 12:44:00,,0832.8,5.00,0.00,30.4,29.4,00.0,39.1,32.2,33.7,0000.0,0004.32,0007.94,0003.87
2022-08-08 12:45:00,,0832.8,5.00,0.00,30.4,29.4,00.0,39.1,32.3,33.4,0000.0,0004.33,0008.02,0003.87
2022-08-08 12:46:00,,0832.8,5.00,0.00,30.4,28.9,00.0,39.1,32.2,33.4,0000.0,0004.34,0008.01,0003.87
2022-08-08 12:47:00,,0832.7,4.99,0.00,30.3,28.0,00.0,39.1,32.0,34.0,0000.0,0004.34,0008.24,0003.87
2022-08-08 12:48:00,,0832.8,5.01,0.00,30.3,27.5,00.0,39.0,31.9,34.4,0000.0,0004.36,0008.96,0003.87
2022-08-08 12:49:00,,0832.7,4.99,0.00,30.2,27.5,00.0,39.0,31.7,35.2,0000.0,0004.40,0009.02,0003.87
2022-08-08 12:50:00,,0832.8,5.01,0.00,30.2,27.6,00.0,39.0,31.8,34.8,0000.0,0004.44,0008.72,0003.88
2022-08-08 12:51:00,,0832.8,4.99,0.00,30.3,27.7,00.0,38.9,31.8,34.2,0000.0,0004.49,0008.72,0003.89
2022-08-08 12:52:00,,0832.8,5.00,0.00,30.3,27.8,00.0,38.9,31.8,34.0,0000.0,0004.55,0009.15,0003.91
2022-08-08 12:53:00,,0832.8,5.00,0.00,30.4,28.0,00.0,38.9,31.7,34.0,0000.0,0004.60,0009.37,0003.91
2022-08-08 12:54:00,,0832.8,5.00,0.00,30.4,28.1,00.0,38.9,31.8,33.9,0000.0,0004.59,0009.67,0003.90
2022-08-08 12:55:00,,0832.8,5.00,0.00,30.4,28.3,00.0,38.9,31.8,33.8,0000.0,0004.63,0010.65,0003.90
2022-08-08 12:56:00,,0832.9,5.00,0.00,30.4,28.4,00.0,39.0,31.9,33.5,0000.0,0004.66,0011.85,0003.89
2022-08-08 12:57:00,,0832.8,5.01,0.00,30.4,28.5,00.0,39.0,31.9,33.6,0000.0,0004.65,0012.19,0003.88
2022-08-08 12:58:00,,0832.8,5.00,0.00,30.3,28.6,00.0,39.0,31.9,33.8,0000.0,0004.63,0011.93,0003.88
2022-08-08 12:59:00,,0832.8,5.01,0.00,30.3,28.7,00.0,39.0,31.9,34.0,0000.0,0004.64,0011.62,0003.88
